Weather History for KVDI - November, 2012

Change the Weather History Date:

Saturday, November 3, 2012

  Actual Average (KAZE) Record (KAZE)
Temperature  
Mean Temperature 68 °F -  
Max Temperature 84 °F 83 °F 91 °F (2014)
Min Temperature 51 °F 60 °F 32 °F (2014)
Cooling Degree Days 2    
Growing Degree Days 18 (Base 50)    
Moisture  
Dew Point 52 °F    
Average Humidity 61    
Maximum Humidity 94    
Minimum Humidity 30    
Precipitation  
Precipitation 0.00 in - - ()
Sea Level Pressure  
Sea Level Pressure 30.05 in    
Wind  
Wind Speed 2 mph (West)    
Max Wind Speed 8 mph    
Max Gust Speed -    
Visibility 10 miles    
Events      
Averages and records for this station are not official NWS values.
T = Trace of Precipitation, MM = Missing Value Source: NWS Daily Summary

Daily Weather History Graph

Daily Weather History Graph

Search for Another Location

Airport or City:

Trip Planner

Search our weather history database for the weather conditions in past years. The results will help you decide how hot, cold, wet, or windy it might be!

Date:

Astronomy

Nov. 03, 2012 Rise Set
Actual Time 7:48 AM EDT 6:37 PM EDT
Civil Twilight 7:23 AM EDT 7:02 PM EDT
Nautical Twilight 6:53 AM EDT 7:31 PM EDT
Astronomical Twilight 6:25 AM EDT 8:00 PM EDT
Moon 10:22 PM EDT (11/3) 11:45 AM EDT (11/3)
Length of Visible Light 11h 39m
Length of Day
10h 48m
Waning Gibbous, 80% of the Moon is Illuminated
Nov 3
Waning Gibbous
Nov 6
Last Quarter
Nov 13
New
Nov 20
First Quarter
Nov 28
Full

Hourly Weather History & Observations

Time (EDT) Temp. Heat Index Dew Point Humidity Pressure Visibility Wind Dir Wind Speed Gust Speed Precip Events Conditions
12:15 AM 62.6 °F - 50.0 °F 63% 30.00 in 10.0 mi WSW 4.6 mph - N/A   Clear
12:35 AM 60.8 °F - 51.8 °F 72% 30.00 in 10.0 mi Calm Calm - N/A   Clear
12:55 AM 60.8 °F - 51.8 °F 72% 30.01 in 10.0 mi Calm Calm - N/A   Clear
1:15 AM 60.8 °F - 51.8 °F 72% 30.01 in 10.0 mi WSW 3.5 mph - N/A   Clear
1:35 AM 60.8 °F - 51.8 °F 72% 30.01 in 10.0 mi West 3.5 mph - N/A   Clear
1:55 AM 62.6 °F - 51.8 °F 68% 30.01 in 10.0 mi Calm Calm - N/A   Clear
2:15 AM 60.8 °F - 51.8 °F 72% 30.01 in 10.0 mi Calm Calm - N/A   Clear
2:35 AM 60.8 °F - 51.8 °F 72% 30.02 in 10.0 mi WNW 3.5 mph - N/A   Clear
2:55 AM 62.6 °F - 51.8 °F 68% 30.02 in 10.0 mi WNW 5.8 mph - N/A   Clear
3:15 AM 64.4 °F - 51.8 °F 64% 30.02 in 10.0 mi NW 5.8 mph - N/A   Clear
3:35 AM 62.6 °F - 51.8 °F 68% 30.02 in 10.0 mi NW 6.9 mph - N/A   Clear
3:55 AM 62.6 °F - 51.8 °F 68% 30.02 in 10.0 mi WNW 4.6 mph - N/A   Clear
4:15 AM 59.0 °F - 51.8 °F 77% 30.02 in 10.0 mi SW 8.1 mph - N/A   Clear
4:35 AM 55.4 °F - 51.8 °F 88% 30.03 in 10.0 mi WSW 4.6 mph - N/A   Clear
4:55 AM 55.4 °F - 51.8 °F 88% 30.04 in 10.0 mi Calm Calm - N/A   Clear
5:15 AM 55.4 °F - 51.8 °F 88% 30.04 in 10.0 mi Calm Calm - N/A   Clear
5:35 AM 55.4 °F - 50.0 °F 82% 30.04 in 10.0 mi Calm Calm - N/A   Clear
6:15 AM 51.8 °F - 50.0 °F 94% 30.05 in 10.0 mi Calm Calm - N/A   Clear
6:35 AM 51.8 °F - 50.0 °F 94% 30.06 in 10.0 mi Calm Calm - N/A   Clear
6:55 AM 53.6 °F - 50.0 °F 88% 30.06 in 10.0 mi Calm Calm - N/A   Clear
7:15 AM 51.8 °F - 48.2 °F 88% 30.07 in 10.0 mi SW 3.5 mph - N/A   Clear
7:55 AM 51.8 °F - 50.0 °F 94% 30.09 in 10.0 mi Calm Calm - N/A   Clear
8:15 AM 51.8 °F - 50.0 °F 94% 30.09 in 10.0 mi Calm Calm - N/A   Clear
8:35 AM 53.6 °F - 51.8 °F 94% 30.10 in 10.0 mi Calm Calm - N/A   Clear
8:55 AM 57.2 °F - 53.6 °F 88% 30.11 in 10.0 mi Calm Calm - N/A   Clear
9:15 AM 59.0 °F - 53.6 °F 82% 30.12 in 10.0 mi Calm Calm - N/A   Clear
9:55 AM 66.2 °F - 51.8 °F 60% 30.12 in 10.0 mi NW 4.6 mph - N/A   Clear
10:15 AM 68.0 °F - 51.8 °F 56% 30.12 in 10.0 mi North 3.5 mph - N/A   Clear
10:55 AM 69.8 °F - 48.2 °F 46% 30.12 in 10.0 mi Calm Calm - N/A   Clear
11:15 AM 71.6 °F - 50.0 °F 46% 30.12 in 10.0 mi Calm Calm - N/A   Clear
11:35 AM 73.4 °F - 46.4 °F 38% 30.12 in 10.0 mi NNW 3.5 mph - N/A   Clear
11:55 AM 73.4 °F - 46.4 °F 38% 30.11 in 10.0 mi NW 4.6 mph - N/A   Clear
12:15 PM 77.0 °F - 46.4 °F 34% 30.11 in 10.0 mi Calm Calm - N/A   Clear
12:35 PM 77.0 °F - 48.2 °F 36% 30.10 in 10.0 mi Calm Calm - N/A   Clear
12:55 PM 78.8 °F - 46.4 °F 32% 30.09 in 10.0 mi Calm Calm - N/A   Clear
1:15 PM 80.6 °F - 46.4 °F 30% 30.08 in 10.0 mi NW 4.6 mph - N/A   Clear
1:35 PM 80.6 °F - 46.4 °F 30% 30.07 in 10.0 mi West 5.8 mph - N/A   Clear
1:55 PM 82.4 °F - 48.2 °F 30% 30.07 in 10.0 mi West 4.6 mph - N/A   Clear
2:15 PM 82.4 °F - 50.0 °F 32% 30.06 in 10.0 mi NNW 8.1 mph - N/A   Clear
2:35 PM 82.4 °F - 50.0 °F 32% 30.05 in 10.0 mi WNW 3.5 mph - N/A   Clear
2:55 PM 82.4 °F - 51.8 °F 35% 30.04 in 10.0 mi West 6.9 mph - N/A   Clear
3:15 PM 82.4 °F - 51.8 °F 35% 30.03 in 10.0 mi North 3.5 mph - N/A   Clear
3:35 PM 82.4 °F - 50.0 °F 32% 30.03 in 10.0 mi NW 4.6 mph - N/A   Clear
3:55 PM 82.4 °F - 50.0 °F 32% 30.03 in 10.0 mi West 4.6 mph - N/A   Clear
4:15 PM 84.2 °F - 50.0 °F 30% 30.03 in 10.0 mi Calm Calm - N/A   Clear
4:35 PM 82.4 °F - 50.0 °F 32% 30.02 in 10.0 mi Calm Calm - N/A   Clear
4:55 PM 84.2 °F - 51.8 °F 33% 30.02 in 10.0 mi SW 3.5 mph - N/A   Clear
5:15 PM 84.2 °F - 51.8 °F 33% 30.02 in 10.0 mi West 3.5 mph - N/A   Clear
5:35 PM 82.4 °F - 51.8 °F 35% 30.02 in 10.0 mi WSW 4.6 mph - N/A   Clear
5:55 PM 80.6 °F 80.3 °F 53.6 °F 39% 30.02 in 10.0 mi Calm Calm - N/A   Clear
6:15 PM 75.2 °F - 55.4 °F 50% 30.02 in 10.0 mi Calm Calm - N/A   Clear
6:35 PM 71.6 °F - 59.0 °F 64% 30.02 in 10.0 mi Calm Calm - N/A   Clear
6:55 PM 71.6 °F - 59.0 °F 64% 30.03 in 10.0 mi Calm Calm - N/A   Clear
7:15 PM 69.8 °F - 57.2 °F 64% 30.03 in 10.0 mi SSW 3.5 mph - N/A   Clear
7:35 PM 69.8 °F - 57.2 °F 64% 30.04 in 10.0 mi Calm Calm - N/A   Clear
7:55 PM 68.0 °F - 55.4 °F 64% 30.04 in 10.0 mi Calm Calm - N/A   Clear
8:15 PM 68.0 °F - 59.0 °F 73% 30.04 in 10.0 mi Calm Calm - N/A   Clear
8:35 PM 68.0 °F - 55.4 °F 64% 30.04 in 10.0 mi Calm Calm - N/A   Clear
8:55 PM 66.2 °F - 57.2 °F 73% 30.04 in 10.0 mi Calm Calm - N/A   Clear
9:15 PM 66.2 °F - 55.4 °F 68% 30.04 in 10.0 mi South 3.5 mph - N/A   Clear
9:35 PM 66.2 °F - 55.4 °F 68% 30.04 in 10.0 mi South 3.5 mph - N/A   Clear
9:55 PM 66.2 °F - 55.4 °F 68% 30.04 in 10.0 mi South 3.5 mph - N/A   Clear
10:15 PM 66.2 °F - 55.4 °F 68% 30.05 in 10.0 mi SSE 4.6 mph - N/A   Clear
10:35 PM 68.0 °F - 55.4 °F 64% 30.05 in 10.0 mi SSE 3.5 mph - N/A   Clear
10:55 PM 66.2 °F - 55.4 °F 68% 30.05 in 10.0 mi South 3.5 mph - N/A   Clear
11:15 PM 64.4 °F - 55.4 °F 73% 30.05 in 10.0 mi South 4.6 mph - N/A   Clear
11:35 PM 64.4 °F - 55.4 °F 73% 30.05 in 10.0 mi Calm Calm - N/A   Clear
11:55 PM 62.6 °F - 55.4 °F 77% 30.05 in 10.0 mi Calm Calm - N/A   Clear